www.pogodaiklimat.ru

Погода и климат >> Архив погоды >> Ирак >> Эль-Азизия


ПОГОДА в Эль-Азизии

  • Прогноз погоды в Эль-Азизии
  • Монитор погоды в Эль-Азизии

АРХИВ ПОГОДЫ в Эль-Азизии

Время (UTC), дата Ветер
(напр.,м/с)
 
Видим.   Явления Облачность Т
(С)
Тd
(С)
f
(%)
Тe
(С)
Тes
(С)
Комфортность P
(гПа)
Po
(гПа)
Тmin
(С)
Tmax
(С)
R
(мм)
R24
(мм)
S
(см)
18 10.02 З 3 6000 м дымка ясно +11.7 +11.3 97 +10 +10 1017.8 1014.8 +16.2
21 10.02 З 3 7000 м дымка ясно +10.4 +10.2 99 +8 +8 1017.8 1014.7
06 11.02 СЗ 1 700 м туман ?/? +9.4 +9.4 100 +9 +9 1019.3 1016.2 +8.7
09 11.02 СЗ 2 5000 м дымка {туман} 5/5 900 м
[Sc]
+13.7 +11.8 88 +13 +18 1018.3 1015.3
12 11.02 С 3 10 км 5/1
[Cu hum Ci fib]
+15.9 +10.8 72 +15 +19 1016.7 1013.7
15 11.02 СЗ 2 10 км 5/3
[Cu med, cong Ci ing]
+15.5 +10.3 71 +15 +15 1016.8 1013.8
18 11.02 СЗ 4 10 км ясно +12.4 +10.4 88 +10 +10 1017.8 1014.8 +16.6
06 12.02 СЗ 3 10 км ясно +11.2 +8.7 85 +9 +13 1020.6 1017.5 +8.5
09 12.02 СЗ 3 10 км ясно +15.0 +10.2 73 +14 +23 1020.3 1017.3
12 12.02 СЗ 3 10 км 1/0
[Ci fib]
+17.0 +8.1 56 +17 +21 1019.8 1016.8
15 12.02 СЗ 2 10 км ясно +15.2 +10.2 72 +15 +15 1020.1 1017.1
18 12.02 СЗ 2 10 км ясно +12.2 +9.8 85 +11 +11 1020.6 1017.5 +17.6
21 12.02 СЗ 2 10 км ясно +10.8 +8.1 83 +9 +9 1020.6 1017.5
00 13.02 СЗ 2 10 км ясно +9.0 +7.9 93 +7 +7 1022.5 1019.4
03 13.02 СЗ 1 10 км ясно +7.5 +7.5 100 +6 +6 1023.1 1020.0
06 13.02 С 1 10 км 3/0
[Ci fib]
+11.7 +7.5 75 +12 +17 1025.1 1022.0 +7.0
09 13.02 С 1 10 км 3/0
[Ci fib]
+17.0 +6.4 50 +18 +30 опасность
простуды
1024.0 1021.0
12 13.02 Ю 1 10 км 5/0
[Ci fib]
+18.7 +5.6 42 +20 +25 1023.5 1020.5
15 13.02 ЮВ 1 10 км 5/0
[Ac trans Ci fib]
+16.5 +7.5 55 +17 +17 1022.6 1019.6
18 13.02 Ю 1 10 км ясно +12.2 +8.1 76 +12 +12 1023.3 1020.2 +19.5
21 13.02 штиль 0 10 км ясно +10.0 +7.9 87 +9 +9 1022.7 1019.6
00 14.02 штиль 0 10 км ясно +8.7 +6.5 86 +8 +8 1021.9 1018.8
03 14.02 ЮВ 2 10 км 4/4 1050 м
[Sc]
+9.8 +7.2 84 +8 +8 1020.2 1017.1
06 14.02 Ю 2 10 км 8/4 750 м
[Cu med, cong Ac trans]
+11.2 +9.0 86 +10 +12 1021.3 1018.2 +8.3
09 14.02 Ю 9 10 км 9/9 750 м
[Cu Sc]
+16.6 +7.1 53 +15 +15 1019.0 1016.0
12 14.02 Ю 12 8000 м пыльный позёмок 8/4 750 м
[Cu hum Ac trans Ci fib]
+17.2 +9.1 59 +15 +15 1015.8 1012.8
15 14.02 Ю 4 10 км 6/5 750 м
[Cu med, cong Ac trans]
+16.0 +8.7 62 +15 +15 1014.7 1011.7
21 14.02 Ю 10 8000 м пыльный позёмок 9/9 750 м
[Cu Sc]
+14.0 +6.8 62 +11 +11 1015.3 1012.3
00 15.02 Ю 13 7000 м пыльный позёмок 9/9 750 м
[Cu Sc]
+13.7 +9.6 76 +10 +10 1015.3 1012.3
03 15.02 Ю 16 7000 м пыльный позёмок 9/9 750 м
[Cu Sc]
+13.9 +8.0 68 +10 +10 1014.1 1011.1
06 15.02 ЮВ 4 10 км 9/9 750 м
[Cu Sc]
+15.0 +7.7 62 +14 +14 1014.1 1011.1 +13.4
09 15.02 ЮВ 15 10 км 9/9 750 м
[Cu Sc]
+17.8 +10.3 61 +16 +16 1012.8 1009.8
12 15.02 ЮВ 3 10 км 10/10 750 м
[Cu Sc]
+18.4 +12.7 69 +19 +19 1011.2 1008.2
15 15.02 СЗ 5 10 км ясно +16.4 +11.7 74 +15 +15 1010.9 1007.9
18 15.02 СЗ 7 10 км 5/5 900 м
[Sc]
+10.5 +5.7 72 +7 +7 1014.9 1011.8 +18.5
06 16.02 З 1 10 км ясно +9.3 +6.2 81 +9 +15 1021.9 1018.8 +6.0
09 16.02 З 1 10 км ясно +14.2 +7.7 65 +15 +28 опасность
простуды
1021.4 1018.4
12 16.02 СЗ 1 10 км 1/0
[Ci fib]
+16.8 +7.1 53 +18 +23 1019.8 1016.8
15 16.02 СЗ 1 10 км ясно +15.0 +8.0 63 +16 +16 1019.7 1016.7
18 16.02 С 1 10 км ясно +11.5 +10.5 94 +11 +11 1021.2 1018.1 +17.2
21 16.02 З 1 10 км 4/0
[Ci fib]
+9.8 +8.5 92 +9 +9 1020.9 1017.8
00 17.02 штиль 0 10 км 4/4 900 м
[Sc]
+10.0 +9.6 97 +9 +9 1020.2 1017.1
03 17.02 З 1 10 км 10/9 750 м
[Cu Sc]
+10.0 +9.6 97 +9 +9 1021.0 1017.9
06 17.02 ЮВ 2 10 км 4/4 1050 м
[Sc]
+11.6 +9.2 85 +10 +13 1020.9 1017.8 +8.5
09 17.02 Ю 2 10 км 4/0
[Ac trans]
+17.6 +9.6 59 +18 +27 1020.2 1017.2
12 17.02 З 2 10 км 8/8 600 м
[Cb calv]
+19.2 +7.6 47 +20 +21 1018.9 1015.9
15 17.02 З 1 10 км {ливн. осадки} 6/6 600 м
[Cb calv]
+16.8 +7.1 53 +18 +18 1018.8 1015.8

 

Местоположение метеостанции Эль-Азизия (Ирак): широта 32.92 долгота 45.07 высота над уровнем моря 25 м.

В архиве по умолчанию представлена погода в Эль-Азизии за последнюю неделю. Архивные данные за месяц целиком и за предыдущие месяцы, начиная с января 2011 года, Вы можете получить, выбрав интересующий диапазон дат из раскрывающегося списка и нажав кнопку "Ввод!".


*Определитесь, кто Вы:
робот инопланетянин человек

Внимание! Время в таблицах - всемирное. Для получения местного времени необходимо прибавить поправку, которая равна 3 ч.

Смотрите также архив погоды в соседних городах и на ближайших метеорологических станциях:

Погода в Айн Аль-Тамаре (Ирак) (77 км)
Погода в Хелле (Ирак) (78 км)
Погода в Убайда Бин Аль Джарра (Ирак) (80 км)
Погода в Бадре (Ирак) (84 км)
Погода в Багдаде (Ирак) (86 км)
Погода в Кербеле (Ирак) (104 км)
Погода в Дивании (Ирак) (105 км)
Погода в Эль-Халисе (Ирак) (113 км)
Погода в Кут-аль-Хай (Ирак) (124 км)
Погода в Наджафе (Ирак) (126 км)

Пояснения к столбцам:

Ветер - указаны скорость ветра в м/с - средняя за 10 мин, порывы в срок и между сроками (в фигурных скобках) и направление, откуда дует ветер: С - северный, СВ - северо-восточный, В - восточный, ЮВ - юго-восточный, Ю - южный, ЮЗ - юго-западный, З - западный, СЗ - северо-западный.
Видимость - горизонтальная дальность видимости в метрах или километрах. При видимости от 1 до 10 км при отсутствии осадков обычно наблюдается дымка, при ухудшении видимости до 1 км и менее - туман. В сухую погоду видимость может ухудшаться дымом, пылью или мглою.
Явления - указаны атмосферные явления, наблюдавшиеся в срок или в последний час перед сроком; фигурными скобками обозначены явления, наблюдавшиеся между сроками (за 1-3 часа до срока); квадратными скобками обозначены град или гололедные отложения с указанием их диаметра в мм.
Облачность - указаны через наклонную черту общая и нижняя облачность в баллах и высота нижней границы облаков в метрах; квадратными скобками обозначены формы облаков: Ci - перистые, Cs - перисто-слоистые, Cc - перисто-кучевые, Ac - высококучевые, As - высокослоистые, Sc - слоисто-кучевые, Ns - слоисто-дождевые, Cu - кучевые, Cb - кучево-дождевые. Подробнее классификацию облаков см. в Атласе облаков (PDF).
T - Температура воздуха - температура, измеренная на высоте 2 м над землей.
Td - Температура точки росы - температура, при понижении до которой содержащийся в воздухе водяной пар достигнет насыщения.
f - Относительная влажность воздуха - влажноcть воздуха, измеренная на высоте 2 м над землей.
Te - Эффективная температура - температура, которую ощущает одетый по сезону человек в тени. Характеристика душности погоды. При расчете учитывается влияние влажности воздуха и скорости ветра на теплоощущения человека.
Tes - Эффективная температура на солнце - температура, которую ощущает человек, с поправкой на солнечный нагрев. Характеристика знойности погоды. Зависит от высоты солнца над горизонтом, облачности и скорости ветра. Ночью, в пасмурную погоду, а также при ветре 12 м/с и более поправка равна нулю.
P - Атмосферное давление - приведенное к уровню моря атмосферное давление.
Po - Атмосферное давление - измеренное на уровне метеостанции атмосферное давление.
Tmin - Минимальная температура - минимум температуры воздуха на высоте 2 м над землей.
Tmax - Максимальная температура - максимум температуры воздуха на высоте 2 м над землей.
R - Количество осадков - Количество выпавших осадков за период времени, мм. При наведении курсора мыши на число - период времени, за который выпало указанное количество осадков.
R24 - Количество осадков - Количество выпавших осадков за 24 часа, мм.
S - Снежный покров - Высота снежного покрова, см. При наведении курсора мыши на число - состояние снежного покрова и степень покрытия местности в баллах.